FW1036 Weather Reports


Display with metric or nautical units.
time (UTC)temp
F
wind
direction
speed
MPH
gust
MPH
rain 1hr
in
rain 24hr
in
rain mn
in
humidity
%
barometer
mb
20260831171526 72 290 1.0 3.0 0.00 0.60 0.47 91 1015.6
20260831170029 72 232 1.0 5.0 0.01 0.60 0.47 91 1015.2
20260831164522 72 244 1.0 4.0 0.03 0.62 0.47 93 1015.2
20260831163018 70 167 0.0 2.0 0.03 0.62 0.47 93 1015.1
20260831161517 69 200 0.0 0.0 0.03 0.62 0.47 93 1015.0
20260831160013 69 253 0.0 1.0 0.09 0.64 0.46 93 1015.0
20260831154510 69 253 0.0 3.0 0.23 0.62 0.44 93 1015.4
20260831153008 69 278 1.0 7.0 0.23 0.62 0.44 93 1015.8
20260831151515 68 306 1.0 9.0 0.24 0.62 0.44 93 1015.5
20260831150007 68 279 5.0 13.0 0.16 0.56 0.36 93 1015.7
20260831144504 69 253 1.0 4.0 0.01 0.42 0.21 93 1015.4
20260831143117 69 223 0.0 0.0 0.01 0.42 0.21 93 1014.7
20260831141607 69 223 0.0 0.0 0.00 0.41 0.20 93 1014.5
20260831140100 69 223 0.0 0.0 0.00 0.41 0.20 93 1014.5
20260831134601 69 223 0.0 0.0 0.00 0.43 0.20 93 1014.2
20260831133056 69 159 0.0 2.0 0.00 0.43 0.20 92 1014.3
20260831131601 69 159 0.0 2.0 0.00 0.43 0.20 93 1014.2
20260831130056 69 159 0.0 1.0 0.00 0.43 0.20 93 1013.9
20260831124602 69 167 1.0 5.0 0.00 0.47 0.20 93 1013.9
20260831123054 69 179 1.0 3.0 0.00 0.47 0.20 93 1014.1
20260831121557 68 219 0.0 1.0 0.01 0.47 0.20 93 1014.0
20260831120047 67 219 0.0 1.0 0.02 0.47 0.20 93 1014.1
20260831114551 67 219 0.0 0.0 0.05 0.50 0.20 93 1013.8
20260831113044 67 144 2.0 5.0 0.11 0.50 0.20 93 1013.7
20260831111548 67 160 1.0 5.0 0.13 0.49 0.19 93 1013.5
20260831110054 67 165 1.0 5.0 0.13 0.47 0.17 93 1013.8
20260831104543 67 238 1.0 7.0 0.11 0.46 0.15 93 1014.1
20260831103040 67 280 0.0 1.0 0.08 0.40 0.09 92 1014.3
20260831101544 67 279 0.0 1.0 0.05 0.37 0.06 92 1014.6
20260831100037 67 279 0.0 1.0 0.03 0.35 0.04 92 1014.4
20260831094540 67 279 0.0 1.0 0.03 0.35 0.04 91 1014.4
20260831093035 67 213 2.0 5.0 0.00 0.32 0.01 91 1014.1
20260831091545 67 212 0.0 3.0 0.00 0.32 0.01 92 1013.9
20260831090033 67 205 1.0 4.0 0.00 0.32 0.01 92 1014.0
20260831084532 67 208 2.0 4.0 0.00 0.32 0.01 92 1014.0
20260831083031 67 223 0.0 2.0 0.00 0.32 0.01 92 1014.1
20260831081531 67 253 1.0 5.0 0.00 0.32 0.01 92 1013.8
20260831080032 67 225 1.0 4.0 0.00 0.32 0.01 92 1013.8
20260831074528 68 227 0.0 3.0 0.00 0.32 0.01 92 1014.1
20260831073029 67 232 1.0 6.0 0.00 0.32 0.01 92 1014.0
20260831071531 68 231 1.0 5.0 0.00 0.32 0.01 92 1014.0
20260831070025 67 240 1.0 3.0 0.00 0.32 0.01 92 1014.1
20260831064525 68 206 2.0 4.0 0.01 0.32 0.01 92 1014.2
20260831063022 68 201 2.0 6.0 0.01 0.32 0.01 92 1014.5
20260831061521 68 201 2.0 7.0 0.01 0.32 0.01 92 1014.5
20260831060020 68 210 1.0 9.0 0.01 0.32 0.01 92 1014.5
20260831054518 68 215 2.0 7.0 0.00 0.31 0.00 91 1014.3
20260831053022 68 202 3.0 6.0 0.00 0.31 0.00 91 1014.6
20260831051520 68 196 4.0 15.0 0.00 0.31 0.00 91 1014.4
20260831050014 68 215 3.0 9.0 0.00 0.31 0.00 91 1014.4
20260831044514 68 199 4.0 9.0 0.00 0.31 0.00 91 1014.4
20260831043012 68 191 3.0 8.0 0.00 0.31 0.00 92 1014.5
20260831041511 68 211 1.0 5.0 0.00 0.31 0.00 92 1014.5
20260831040022 68 235 2.0 5.0 0.00 0.31 0.31 92 1014.5
20260831034512 68 235 3.0 8.0 0.00 0.31 0.31 92 1014.5
20260831033007 68 219 3.0 11.0 0.00 0.31 0.31 92 1014.6
20260831031506 68 177 3.0 8.0 0.00 0.31 0.31 92 1014.6
20260831030005 68 232 3.0 10.0 0.00 0.31 0.31 92 1014.4
20260831024504 67 138 4.0 9.0 0.00 0.31 0.31 92 1014.3
20260831023006 67 159 3.0 9.0 0.00 0.31 0.31 92 1014.3
20260831021503 67 142 4.0 11.0 0.00 0.31 0.31 92 1014.3
20260831020001 67 155 4.0 12.0 0.00 0.31 0.31 92 1014.4
20260831014501 67 171 7.0 12.0 0.00 0.31 0.31 92 1014.6
20260831013108 67 185 7.0 12.0 0.00 0.31 0.31 92 1014.6
20260831011559 67 156 7.0 12.0 0.00 0.31 0.31 92 1014.6
20260831010059 67 178 5.0 11.0 0.00 0.31 0.31 92 1014.5
20260831004603 67 134 6.0 13.0 0.00 0.31 0.31 92 1014.5
20260831003057 67 192 5.0 12.0 0.00 0.31 0.31 92 1014.5
20260831001556 67 153 5.0 16.0 0.00 0.31 0.31 92 1014.7
20260831000056 67 165 3.0 12.0 0.00 0.31 0.31 92 1014.7
20260830234556 67 171 2.0 10.0 0.00 0.31 0.31 92 1014.7
20260830233055 67 231 3.0 8.0 0.00 0.31 0.31 92 1014.7
20260830231601 67 158 4.0 10.0 0.00 0.31 0.31 92 1014.8
20260830230055 67 213 3.0 6.0 0.00 0.31 0.31 92 1015.1
20260830224558 67 165 2.0 9.0 0.01 0.31 0.31 92 1015.2
20260830223055 67 223 3.0 12.0 0.02 0.31 0.31 92 1015.3
20260830221602 66 158 3.0 11.0 0.02 0.31 0.31 92 1015.4
20260830220055 66 192 3.0 6.0 0.02 0.31 0.31 92 1015.2
20260830214556 66 193 2.0 7.0 0.01 0.30 0.30 91 1015.1
20260830213051 66 211 1.0 7.0 0.11 0.28 0.28 91 1015.3
20260830211555 66 215 2.0 5.0 0.11 0.28 0.28 91 1015.2
20260830210050 66 228 1.0 7.0 0.11 0.28 0.28 91 1014.9
20260830204549 66 232 2.0 6.0 0.11 0.28 0.28 91 1014.8
20260830203047 66 169 3.0 9.0 0.00 0.18 0.18 92 1014.8
20260830201547 66 159 2.0 12.0 0.00 0.18 0.18 92 1014.8
20260830200048 66 204 2.0 8.0 0.00 0.18 0.18 92 1014.8
20260830194544 66 169 3.0 9.0 0.00 0.18 0.18 92 1015.0
20260830193046 66 181 3.0 8.0 0.00 0.18 0.18 93 1015.1
20260830191546 65 219 3.0 10.0 0.00 0.18 0.18 92 1015.1
20260830190041 65 170 3.0 8.0 0.00 0.18 0.18 92 1015.2
20260830184540 65 148 4.0 9.0 0.00 0.18 0.18 92 1015.1
20260830183037 65 176 2.0 4.0 0.00 0.18 0.18 92 1016.3
20260830181536 65 167 1.0 4.0 0.00 0.18 0.18 93 1016.1
20260830180051 65 146 3.0 6.0 0.00 0.18 0.18 92 1015.8
20260830174537 65 155 5.0 9.0 0.00 0.18 0.18 92 1015.7
20260830173048 65 150 4.0 7.0 0.00 0.18 0.18 92 1015.8